Track SHIJIAN-16 (SJ-16) now! 10-day predictions SHIJIAN-16 (SJ-16) is classified as:
1 39358U 13057A 22181.63302467 .00000328 00000-0 40442-4 0 9990 2 39358 74.9746 203.4710 0017539 131.7584 228.5112 14.86190731470954